TimeEST,TemperatureF,Dew PointF,Humidity,Sea Level PressureIn,VisibilityMPH,Wind Direction,Wind SpeedMPH,Gust SpeedMPH,PrecipitationIn,Events,Conditions,WindDirDegrees,DateUTC
12:51 AM,37.0,21.9,54,29.94,10.0,West,5.8,-,N/A,,Mostly Cloudy,270,2013-02-13 05:51:00
1:51 AM,37.0,23.0,57,29.95,10.0,WNW,6.9,-,N/A,,Mostly Cloudy,290,2013-02-13 06:51:00
2:51 AM,37.0,21.9,54,29.94,10.0,NW,9.2,-,N/A,,Scattered Clouds,310,2013-02-13 07:51:00
3:51 AM,36.0,21.9,57,29.93,10.0,NW,9.2,-,N/A,,Partly Cloudy,310,2013-02-13 08:51:00
4:51 AM,35.1,23.0,61,29.90,10.0,NW,8.1,-,N/A,,Partly Cloudy,320,2013-02-13 09:51:00
5:51 AM,35.1,24.1,64,29.92,10.0,Calm,Calm,-,N/A,,Partly Cloudy,0,2013-02-13 10:51:00
6:51 AM,34.0,23.0,64,29.91,10.0,Calm,Calm,-,N/A,,Partly Cloudy,0,2013-02-13 11:51:00
7:51 AM,37.0,23.0,57,29.91,10.0,Calm,Calm,-,N/A,,Partly Cloudy,0,2013-02-13 12:51:00
8:51 AM,37.9,19.9,48,29.89,10.0,North,5.8,-,N/A,,Partly Cloudy,360,2013-02-13 13:51:00
9:51 AM,37.9,19.9,48,29.88,10.0,NNW,5.8,-,N/A,,Partly Cloudy,330,2013-02-13 14:51:00
10:51 AM,39.0,19.9,46,29.89,10.0,Calm,Calm,-,N/A,,Scattered Clouds,0,2013-02-13 15:51:00
11:51 AM,41.0,24.1,51,29.87,10.0,Variable,5.8,-,N/A,,Mostly Cloudy,0,2013-02-13 16:51:00
12:51 PM,41.0,23.0,49,29.83,10.0,Calm,Calm,-,N/A,,Mostly Cloudy,0,2013-02-13 17:51:00
1:51 PM,43.0,23.0,45,29.77,10.0,East,4.6,-,N/A,,Scattered Clouds,80,2013-02-13 18:51:00
2:51 PM,43.0,24.1,47,29.77,10.0,NE,5.8,-,N/A,,Mostly Cloudy,50,2013-02-13 19:51:00
3:51 PM,42.1,26.1,53,29.75,10.0,SSE,11.5,-,N/A,,Mostly Cloudy,160,2013-02-13 20:51:00
4:51 PM,39.9,25.0,55,29.73,10.0,South,4.6,-,N/A,,Mostly Cloudy,170,2013-02-13 21:51:00
5:51 PM,39.9,25.0,55,29.70,10.0,East,5.8,-,N/A,,Mostly Cloudy,80,2013-02-13 22:51:00
6:51 PM,39.9,26.1,58,29.70,10.0,NE,6.9,-,N/A,,Overcast,40,2013-02-13 23:51:00
7:51 PM,39.0,30.0,70,29.70,10.0,NE,8.1,-,0.00,Rain,Light Rain,40,2013-02-14 00:51:00
8:51 PM,37.0,30.0,76,29.71,9.0,NE,6.9,-,0.00,Snow,Light Snow,50,2013-02-14 01:51:00
9:51 PM,37.0,28.0,70,29.71,10.0,NE,4.6,-,0.00,Snow,Light Snow,50,2013-02-14 02:51:00
10:32 PM,37.4,28.4,70,29.70,10.0,North,10.4,-,0.00,Snow,Light Snow,350,2013-02-14 03:32:00
10:48 PM,35.6,30.2,81,29.70,10.0,North,8.1,-,0.00,Rain,Light Rain,360,2013-02-14 03:48:00
10:51 PM,36.0,30.9,82,29.70,10.0,North,10.4,-,0.00,Rain,Light Rain,360,2013-02-14 03:51:00
11:24 PM,35.6,30.2,81,29.71,6.0,North,10.4,-,0.00,Snow,Light Snow,360,2013-02-14 04:24:00
11:51 PM,34.0,30.9,89,29.71,6.0,North,11.5,-,0.01,Snow,Light Snow,10,2013-02-14 04:51:00